Hlavní strana
METAR-TAF:

METAR-TAF

Letiště :

Lancaster, Jižní Karolína, Spojené státy americké

zeměpisná šířka: 34-43-22N, zeměpisná délka: 080-51-17W, výška: 148 m

Aktuální stav počasí

Zpráva byla vytvořena před 24 minutami, v 12:35 UTC
Severovýchodní vítr 3 kt
Teplota 9°C
Vlhkost vzduchu 76%
Tlak 1026 hPa
Viditelnost: 16.1 km
Zataženo ve výšce 6000 ft

METAR: KLKR 251235Z AUTO 05003KT 10SM OVC060 09/05 A3030 RMK AO2

Čas: 07:59 (12:59 UTC)


TAF: chybějící

Stav a předpovědi počasí z více než 4 000 letišť (zprávy METAR a TAF).

Červené a žluté tečky na mapě představují dostupné meteorologické stanice.

Když kurzor umístíte na tečku, zobrazí se název stanice.

Pak kliknutím zobrazíte stav a předpověď počasí.

Chcete-li změnit mapu, kliknutím na zelené tlačítko se znaménkem +mapu přiblížíte, kliknutím na zelené tlačítko se znaménkem – mapu oddálíte a kliknutím na zelené šipky přejdete na sousední mapy.


METAR-TAF: